Date String (YYYY-MM-DD hh:mm:ss) UTC,Instrument flags,Ambient pressure (hPa),Sample flow (lpm),Bypass flow (lpm),Sample temperature (°C),Ambient temperature (°C),ASC tube jacket temperature (°C),LED temperature (°C),Box temperature (°C),Sample RH (%),Span deviation,Mass concentration (μg/m³),Mass concentration (μg/m³),Mass concentration (μg/m³)
DateTimeUTC,F1_M11,P_M11,Q1_M11,Q2_M11,T1_M11,T2_M11,T3_M11,T4_M11,T5_M11,U1_M11,ZSPAN_M11,X0_M11,X2_M11,X1_M11
2022-06-01 18:00:00,,0832.1,5.00,0.00,25.7,24.8,00.0,34.6,27.7,21.9,0000.0,0001.86,0001.25,0001.10
2022-06-01 18:01:00,,0832.1,5.00,0.00,25.7,24.8,00.0,34.6,27.7,22.2,0000.0,0001.67,0001.26,0001.11
2022-06-01 18:02:00,,0832.1,4.99,0.00,25.7,24.8,00.0,34.6,27.7,22.2,0000.0,0001.66,0001.26,0001.12
2022-06-01 18:03:00,,0832.0,4.99,0.00,25.7,24.9,00.0,34.6,27.7,22.2,0000.0,0001.74,0001.32,0001.16
2022-06-01 18:04:00,,0832.1,5.01,0.00,25.7,24.8,00.0,34.6,27.7,22.2,0000.0,0001.95,0001.42,0001.21
2022-06-01 18:05:00,,0832.1,4.99,0.00,25.7,24.8,00.0,34.6,27.7,22.5,0000.0,0001.98,0001.47,0001.25
2022-06-01 18:06:00,,0832.1,4.99,0.00,25.8,24.8,00.0,34.6,27.7,22.1,0000.0,0001.98,0001.51,0001.30
2022-06-01 18:07:00,,0832.1,5.01,0.00,25.8,24.9,00.0,34.6,27.7,21.5,0000.0,0001.99,0001.53,0001.33
2022-06-01 18:08:00,,0832.1,4.99,0.00,25.8,24.9,00.0,34.6,27.7,21.2,0000.0,0002.02,0001.55,0001.36
2022-06-01 18:09:00,,0832.1,5.01,0.00,25.8,24.9,00.0,34.7,27.8,21.7,0000.0,0002.16,0001.58,0001.37
2022-06-01 18:10:00,,0832.1,5.00,0.00,25.8,24.9,00.0,34.7,27.8,21.8,0000.0,0002.19,0001.61,0001.41
2022-06-01 18:11:00,,0832.1,5.01,0.00,25.8,24.9,00.0,34.7,27.8,21.7,0000.0,0002.25,0001.67,0001.45
2022-06-01 18:12:00,,0832.1,4.99,0.00,25.8,25.0,00.0,34.7,27.8,22.2,0000.0,0002.25,0001.69,0001.49
2022-06-01 18:13:00,,0832.1,5.01,0.00,25.8,25.0,00.0,34.7,27.8,22.3,0000.0,0002.27,0001.72,0001.53
2022-06-01 18:14:00,,0832.1,5.00,0.00,25.9,25.0,00.0,34.7,27.8,22.6,0000.0,0002.23,0001.72,0001.53
2022-06-01 18:15:00,,0832.1,5.01,0.00,25.9,25.0,00.0,34.7,27.8,22.8,0000.0,0002.07,0001.66,0001.53
2022-06-01 18:16:00,,0832.1,5.00,0.00,25.9,25.0,00.0,34.7,27.9,22.4,0000.0,0002.01,0001.64,0001.53
2022-06-01 18:17:00,,0832.1,5.01,0.00,25.9,25.0,00.0,34.7,27.8,21.7,0000.0,0002.02,0001.65,0001.55
2022-06-01 18:18:00,,0832.0,5.00,0.00,25.9,25.0,00.0,34.7,27.8,21.7,0000.0,0002.82,0001.69,0001.58
2022-06-01 18:19:00,,0832.0,5.00,0.00,25.9,24.9,00.0,34.7,27.8,21.6,0000.0,0003.24,0001.71,0001.59
2022-06-01 18:20:00,,0831.9,4.99,0.00,25.8,24.9,00.0,34.7,27.8,21.6,0000.0,0003.15,0001.73,0001.61
2022-06-01 18:21:00,,0832.0,5.00,0.00,25.8,24.9,00.0,34.8,27.8,22.0,0000.0,0003.18,0001.74,0001.62
2022-06-01 18:22:00,,0832.0,4.99,0.00,25.8,24.9,00.0,34.8,27.8,21.5,0000.0,0003.25,0001.76,0001.62
2022-06-01 18:23:00,,0832.0,5.00,0.00,25.8,24.9,00.0,34.8,27.8,21.5,0000.0,0003.27,0001.77,0001.61
2022-06-01 18:24:00,,0831.9,5.01,0.00,25.8,24.9,00.0,34.8,27.8,21.7,0000.0,0003.27,0001.77,0001.60
2022-06-01 18:25:00,,0832.0,5.00,0.00,25.8,24.9,00.0,34.8,27.8,22.0,0000.0,0003.30,0001.78,0001.59
2022-06-01 18:26:00,,0831.9,5.00,0.00,25.9,24.9,00.0,34.8,27.8,22.1,0000.0,0003.38,0001.82,0001.61
2022-06-01 18:27:00,,0831.8,5.00,0.00,25.9,24.9,00.0,34.8,27.8,22.2,0000.0,0003.58,0001.89,0001.63
2022-06-01 18:28:00,,0831.8,5.00,0.00,25.9,24.9,00.0,34.8,27.8,22.8,0000.0,0003.70,0001.93,0001.63
2022-06-01 18:29:00,,0831.7,5.00,0.00,25.9,24.9,00.0,34.8,27.8,23.2,0000.0,0002.91,0001.93,0001.62
2022-06-01 18:30:00,,0831.7,5.00,0.00,25.9,24.9,00.0,34.8,27.8,22.9,0000.0,0002.62,0001.95,0001.62
2022-06-01 18:31:00,,0831.7,5.01,0.00,25.9,24.9,00.0,34.8,27.8,22.4,0000.0,0003.53,0001.96,0001.63
2022-06-01 18:32:00,,0831.7,5.00,0.00,25.9,24.9,00.0,34.8,27.8,22.0,0000.0,0003.76,0002.01,0001.66
2022-06-01 18:33:00,,0831.7,5.00,0.00,25.9,25.0,00.0,34.8,27.8,21.7,0000.0,0003.81,0002.03,0001.69
2022-06-01 18:34:00,,0831.7,4.99,0.00,25.9,25.0,00.0,34.8,27.8,22.3,0000.0,0003.83,0002.04,0001.72
2022-06-01 18:35:00,,0831.7,5.01,0.00,25.9,25.0,00.0,34.8,27.8,22.3,0000.0,0003.86,0002.05,0001.73
2022-06-01 18:36:00,,0831.7,5.00,0.00,25.9,25.0,00.0,34.8,27.8,21.9,0000.0,0003.89,0002.08,0001.75
2022-06-01 18:37:00,,0831.7,5.00,0.00,25.9,25.0,00.0,34.8,27.8,21.8,0000.0,0003.86,0002.07,0001.77
2022-06-01 18:38:00,,0831.7,5.01,0.00,25.9,24.9,00.0,34.8,27.8,21.8,0000.0,0003.72,0002.05,0001.78
2022-06-01 18:39:00,,0831.7,4.99,0.00,25.9,24.9,00.0,34.8,27.8,22.3,0000.0,0003.59,0002.00,0001.77
2022-06-01 18:40:00,,0831.6,5.01,0.00,25.9,25.0,00.0,34.8,27.8,22.2,0000.0,0003.60,0002.01,0001.78
2022-06-01 18:41:00,,0831.7,5.00,0.00,25.9,25.0,00.0,34.8,27.9,22.6,0000.0,0003.58,0002.00,0001.79
2022-06-01 18:42:00,,0831.6,5.01,0.00,25.9,25.0,00.0,34.8,27.9,22.2,0000.0,0003.19,0002.01,0001.79
2022-06-01 18:43:00,,0831.6,4.99,0.00,25.9,25.0,00.0,34.8,27.9,22.3,0000.0,0003.22,0001.97,0001.77
2022-06-01 18:44:00,,0831.7,5.01,0.00,25.9,25.0,00.0,34.8,27.9,22.4,0000.0,0003.08,0001.90,0001.74
2022-06-01 18:45:00,,0831.7,4.99,0.00,25.9,25.0,00.0,34.8,27.9,22.2,0000.0,0003.08,0001.91,0001.74
2022-06-01 18:46:00,,0831.7,5.01,0.00,25.9,25.0,00.0,34.8,27.9,22.9,0000.0,0003.13,0001.93,0001.74
2022-06-01 18:47:00,,0831.7,4.99,0.00,25.9,25.0,00.0,34.8,27.9,23.2,0000.0,0003.23,0001.94,0001.73
2022-06-01 18:48:00,,0831.7,5.00,0.00,25.9,25.0,00.0,34.9,27.9,22.3,0000.0,0003.26,0001.95,0001.70
2022-06-01 18:49:00,,0831.7,4.99,0.00,25.9,25.0,00.0,34.9,27.9,22.6,0000.0,0003.20,0001.91,0001.68
2022-06-01 18:50:00,,0831.6,4.99,0.00,26.0,25.0,00.0,34.9,27.9,22.4,0000.0,0003.27,0001.94,0001.69
2022-06-01 18:51:00,,0831.6,5.00,0.00,26.0,25.0,00.0,34.9,27.9,22.2,0000.0,0003.33,0001.99,0001.73
2022-06-01 18:52:00,,0831.6,4.99,0.00,26.0,25.0,00.0,34.9,27.9,22.2,0000.0,0003.40,0002.04,0001.78
2022-06-01 18:53:00,,0831.6,5.01,0.00,26.0,25.0,00.0,34.9,27.9,22.4,0000.0,0003.39,0002.06,0001.82
2022-06-01 18:54:00,,0831.6,5.01,0.00,26.0,25.0,00.0,34.9,27.9,22.2,0000.0,0002.73,0002.13,0001.89
2022-06-01 18:55:00,,0831.6,4.99,0.00,26.0,25.1,00.0,34.9,27.9,22.1,0000.0,0002.76,0002.18,0001.95
2022-06-01 18:56:00,,0831.6,5.00,0.00,26.0,25.1,00.0,34.9,28.0,22.1,0000.0,0002.79,0002.22,0002.00
2022-06-01 18:57:00,,0831.6,5.01,0.00,26.0,25.1,00.0,34.9,28.0,22.3,0000.0,0002.89,0002.30,0002.05
2022-06-01 18:58:00,,0831.6,5.00,0.00,26.0,25.1,00.0,34.9,28.0,22.1,0000.0,0002.84,0002.34,0002.11
2022-06-01 18:59:00,,0831.6,5.00,0.00,26.1,25.2,00.0,34.9,28.0,22.2,0000.0,0002.93,0002.40,0002.16
